TimeMST,TemperatureF,Dew PointF,Humidity,Sea Level PressureIn,VisibilityMPH,Wind Direction,Wind SpeedMPH,Gust SpeedMPH,PrecipitationIn,Events,Conditions,WindDirDegrees,DateUTC
12:00 AM,34.0,28.9,82,29.92,9.0,NW,17.3,25.3,0.00,,Overcast,310,2014-02-17 07:00:00
12:53 AM,34.0,27.0,75,29.94,10.0,West,17.3,-,0.00,,Scattered Clouds,280,2014-02-17 07:53:00
1:53 AM,30.9,26.1,82,29.94,10.0,West,18.4,-,N/A,,Clear,270,2014-02-17 08:53:00
2:53 AM,30.0,26.1,85,29.95,10.0,West,12.7,-,N/A,,Clear,280,2014-02-17 09:53:00
3:53 AM,28.9,24.1,82,29.95,10.0,West,11.5,-,N/A,,Clear,270,2014-02-17 10:53:00
4:53 AM,28.0,25.0,88,29.98,10.0,West,9.2,-,N/A,,Clear,270,2014-02-17 11:53:00
5:53 AM,28.9,24.1,82,30.00,10.0,West,12.7,-,N/A,,Clear,260,2014-02-17 12:53:00
6:53 AM,28.0,21.9,78,30.01,10.0,West,8.1,-,N/A,,Clear,280,2014-02-17 13:53:00
7:53 AM,30.9,23.0,72,30.02,10.0,West,11.5,-,N/A,,Clear,270,2014-02-17 14:53:00
8:53 AM,37.0,23.0,57,30.01,10.0,West,18.4,-,N/A,,Clear,280,2014-02-17 15:53:00
9:53 AM,43.0,21.9,43,29.99,10.0,WNW,24.2,33.4,N/A,,Clear,290,2014-02-17 16:53:00
10:53 AM,46.0,21.0,37,29.98,10.0,WNW,29.9,35.7,N/A,,Clear,290,2014-02-17 17:53:00
11:53 AM,48.9,19.0,31,29.94,10.0,West,34.5,41.4,N/A,,Clear,280,2014-02-17 18:53:00
12:53 PM,48.9,21.0,33,29.90,10.0,West,23.0,29.9,N/A,,Clear,270,2014-02-17 19:53:00
1:53 PM,50.0,21.9,33,29.88,10.0,West,23.0,34.5,N/A,,Clear,270,2014-02-17 20:53:00
2:53 PM,50.0,21.9,33,29.86,10.0,West,21.9,28.8,N/A,,Clear,280,2014-02-17 21:53:00
3:53 PM,46.9,24.1,41,29.85,10.0,WSW,9.2,-,N/A,,Clear,250,2014-02-17 22:53:00
4:53 PM,39.9,26.1,58,29.86,10.0,SSW,9.2,-,N/A,,Clear,200,2014-02-17 23:53:00
5:53 PM,36.0,25.0,64,29.86,10.0,SE,5.8,-,N/A,,Clear,130,2014-02-18 00:53:00
6:53 PM,34.0,23.0,64,29.87,10.0,SE,4.6,-,N/A,,Clear,140,2014-02-18 01:53:00
7:53 PM,30.0,21.9,72,29.86,10.0,South,6.9,-,N/A,,Clear,180,2014-02-18 02:53:00
8:53 PM,28.0,23.0,81,29.85,10.0,SSE,11.5,-,N/A,,Clear,150,2014-02-18 03:53:00
9:53 PM,33.1,24.1,70,29.79,10.0,South,11.5,-,N/A,,Clear,190,2014-02-18 04:53:00
10:53 PM,30.0,21.9,72,29.78,10.0,SSW,5.8,-,N/A,,Clear,210,2014-02-18 05:53:00
11:53 PM,33.1,21.9,64,29.74,10.0,SW,11.5,-,N/A,,Clear,220,2014-02-18 06:53:00